When you browse on this site, cookies collect data to enhance your experience and personalize the content and advertising you see.
Visit our Privacy Policy to learn more. By continuing to use the site, you agree to this use of cookies and data.

Météo par heure à Leighton Buzzard

Ce jour, 2 Juillet, Jeudi

Heure Température Précipitation Vent Pression Humidité
00:00 +11°C° 0 mm 3 m/s 747 mmHg 95%
01:00 +10°C° 0 mm 3 m/s 747 mmHg 96%
02:00 +10°C° 0 mm 3 m/s 747 mmHg 96%
03:00 +10°C° 0 mm 3 m/s 747 mmHg 97%
04:00 +10°C° 0 mm 4 m/s 747 mmHg 95%
05:00 +11°C° 0 mm 4 m/s 747 mmHg 94%
06:00 +12°C° 0 mm 5 m/s 748 mmHg 93%
07:00 +13°C° 0 mm 4 m/s 748 mmHg 89%
08:00 +14°C° 0 mm 4 m/s 748 mmHg 86%
09:00 +15°C° 0 mm 4 m/s 748 mmHg 82%
10:00 +17°C° 0.8 mm 4 m/s 749 mmHg 81%
11:00 +18°C° 0.8 mm 4 m/s 749 mmHg 79%
12:00 +19°C° 0 mm 3 m/s 750 mmHg 76%
13:00 +19°C° 0.8 mm 4 m/s 750 mmHg 76%
14:00 +19°C° 0.8 mm 4 m/s 750 mmHg 76%
15:00 +20°C° 0.8 mm 4 m/s 750 mmHg 76%
16:00 +19°C° 0.6 mm 3 m/s 750 mmHg 78%
17:00 +19°C° 0.6 mm 3 m/s 750 mmHg 81%
18:00 +18°C° 0.6 mm 3 m/s 751 mmHg 83%
19:00 +17°C° 0.3 mm 2 m/s 751 mmHg 87%
20:00 +16°C° 0.3 mm 2 m/s 751 mmHg 90%
21:00 +14°C° 0.3 mm 2 m/s 752 mmHg 94%
22:00 +14°C° 0 mm 2 m/s 752 mmHg 94%
23:00 +12°C° 0 mm 3 m/s 752 mmHg 94%

Demain, 3 Juillet, Vendredi

Heure Température Précipitation Vent Pression Humidité
00:00 +11°C° 0 mm 3 m/s 752 mmHg 94%
01:00 +11°C° 0 mm 3 m/s 752 mmHg 94%
02:00 +10°C° 0 mm 3 m/s 752 mmHg 94%
03:00 +10°C° 0 mm 3 m/s 752 mmHg 95%
04:00 +11°C° 0 mm 3 m/s 752 mmHg 94%
05:00 +11°C° 0 mm 4 m/s 753 mmHg 93%
06:00 +12°C° 0 mm 4 m/s 753 mmHg 92%
07:00 +12°C° 0 mm 5 m/s 753 mmHg 89%
08:00 +13°C° 0 mm 6 m/s 753 mmHg 87%
09:00 +14°C° 0 mm 6 m/s 753 mmHg 84%
10:00 +15°C° 0 mm 7 m/s 753 mmHg 81%
11:00 +15°C° 0 mm 7 m/s 753 mmHg 77%
12:00 +16°C° 0 mm 8 m/s 753 mmHg 73%
13:00 +16°C° 0 mm 8 m/s 752 mmHg 75%
14:00 +16°C° 0 mm 8 m/s 752 mmHg 76%
15:00 +17°C° 0 mm 8 m/s 752 mmHg 77%
16:00 +16°C° 0.1 mm 7 m/s 752 mmHg 81%
17:00 +15°C° 0.1 mm 7 m/s 752 mmHg 84%
18:00 +14°C° 0.1 mm 7 m/s 751 mmHg 87%
19:00 +14°C° 0 mm 7 m/s 751 mmHg 88%
20:00 +14°C° 0 mm 7 m/s 752 mmHg 89%
21:00 +14°C° 0 mm 7 m/s 752 mmHg 90%
22:00 +14°C° 0 mm 7 m/s 751 mmHg 91%
23:00 +15°C° 0 mm 7 m/s 751 mmHg 91%

Après-demain, 4 Juillet, Samedi

Heure Température Précipitation Vent Pression Humidité
00:00 +15°C° 0 mm 7 m/s 751 mmHg 92%
01:00 +15°C° 0 mm 7 m/s 751 mmHg 92%
02:00 +15°C° 0 mm 6 m/s 750 mmHg 92%
03:00 +15°C° 0 mm 6 m/s 750 mmHg 93%
04:00 +15°C° 0.5 mm 6 m/s 750 mmHg 94%
05:00 +16°C° 0.5 mm 6 m/s 750 mmHg 95%
06:00 +16°C° 0.5 mm 7 m/s 749 mmHg 96%
07:00 +16°C° 0.5 mm 7 m/s 749 mmHg 95%
08:00 +16°C° 0.5 mm 7 m/s 749 mmHg 95%
09:00 +16°C° 0.5 mm 7 m/s 749 mmHg 95%
10:00 +17°C° 0.3 mm 7 m/s 749 mmHg 94%
11:00 +17°C° 0.3 mm 7 m/s 749 mmHg 94%
12:00 +17°C° 0.3 mm 7 m/s 748 mmHg 93%
13:00 +17°C° 0.1 mm 7 m/s 748 mmHg 91%
14:00 +17°C° 0.1 mm 8 m/s 748 mmHg 89%
15:00 +18°C° 0.1 mm 8 m/s 748 mmHg 87%
16:00 +17°C° 0 mm 7 m/s 748 mmHg 87%
17:00 +17°C° 0 mm 7 m/s 749 mmHg 87%
18:00 +17°C° 0 mm 6 m/s 749 mmHg 87%
19:00 +17°C° 0 mm 6 m/s 749 mmHg 88%
20:00 +17°C° 0 mm 6 m/s 749 mmHg 88%
21:00 +17°C° 0 mm 6 m/s 750 mmHg 88%
22:00 +16°C° 0 mm 6 m/s 750 mmHg 87%
23:00 +16°C° 0 mm 6 m/s 749 mmHg 86%

5 Juillet, Dimanche

Heure Température Précipitation Vent Pression Humidité
00:00 +16°C° 0 mm 7 m/s 749 mmHg 84%
01:00 +16°C° 0 mm 7 m/s 749 mmHg 84%
02:00 +16°C° 0 mm 7 m/s 749 mmHg 84%
03:00 +16°C° 0 mm 7 m/s 748 mmHg 84%
04:00 +16°C° 0 mm 8 m/s 748 mmHg 85%
05:00 +16°C° 0 mm 9 m/s 747 mmHg 85%
06:00 +17°C° 0 mm 9 m/s 747 mmHg 86%
07:00 +17°C° 0.1 mm 10 m/s 747 mmHg 84%
08:00 +17°C° 0.1 mm 10 m/s 747 mmHg 82%
09:00 +18°C° 0.1 mm 11 m/s 747 mmHg 81%
10:00 +18°C° 0.1 mm 10 m/s 747 mmHg 78%
11:00 +18°C° 0.1 mm 10 m/s 747 mmHg 75%
12:00 +18°C° 0.1 mm 10 m/s 748 mmHg 72%
13:00 +18°C° 0 mm 9 m/s 748 mmHg 70%
14:00 +18°C° 0 mm 9 m/s 748 mmHg 69%
15:00 +18°C° 0 mm 9 m/s 748 mmHg 67%
16:00 +17°C° 0 mm 8 m/s 749 mmHg 69%
17:00 +16°C° 0 mm 8 m/s 749 mmHg 70%
18:00 +15°C° 0 mm 7 m/s 749 mmHg 72%
19:00 +14°C° 0 mm 7 m/s 749 mmHg 73%
20:00 +12°C° 0 mm 7 m/s 749 mmHg 75%
21:00 +11°C° 0 mm 6 m/s 750 mmHg 76%
22:00 +11°C° 0 mm 6 m/s 750 mmHg 77%
23:00 +10°C° 0 mm 6 m/s 750 mmHg 78%

6 Juillet, Lundi

Heure Température Précipitation Vent Pression Humidité
00:00 +10°C° 0 mm 6 m/s 750 mmHg 79%
01:00 +9°C° 0 mm 7 m/s 750 mmHg 78%
02:00 +9°C° 0 mm 7 m/s 750 mmHg 78%
03:00 +9°C° 0 mm 7 m/s 750 mmHg 77%
04:00 +9°C° 0 mm 7 m/s 750 mmHg 78%
05:00 +10°C° 0 mm 7 m/s 750 mmHg 78%
06:00 +10°C° 0 mm 7 m/s 751 mmHg 78%
07:00 +11°C° 0 mm 7 m/s 752 mmHg 76%
08:00 +12°C° 0 mm 8 m/s 752 mmHg 74%
09:00 +13°C° 0 mm 8 m/s 753 mmHg 72%
10:00 +13°C° 0.1 mm 8 m/s 754 mmHg 71%
11:00 +15°C° 0.1 mm 7 m/s 754 mmHg 69%
12:00 +16°C° 0.1 mm 7 m/s 755 mmHg 68%
13:00 +16°C° 0.1 mm 7 m/s 756 mmHg 66%
14:00 +17°C° 0.1 mm 7 m/s 756 mmHg 64%
15:00 +17°C° 0.1 mm 7 m/s 757 mmHg 62%
16:00 +17°C° 0 mm 6 m/s 757 mmHg 64%
17:00 +16°C° 0 mm 6 m/s 758 mmHg 66%
18:00 +15°C° 0 mm 5 m/s 758 mmHg 68%
19:00 +14°C° 0 mm 4 m/s 758 mmHg 71%
20:00 +12°C° 0 mm 4 m/s 759 mmHg 75%
21:00 +10°C° 0 mm 3 m/s 759 mmHg 79%
22:00 +10°C° 0 mm 3 m/s 759 mmHg 81%
23:00 +9°C° 0 mm 3 m/s 760 mmHg 82%

7 Juillet, Mardi

Heure Température Précipitation Vent Pression Humidité
00:00 +8°C° 0 mm 3 m/s 760 mmHg 83%
01:00 +8°C° 0 mm 3 m/s 760 mmHg 85%
02:00 +7°C° 0 mm 2 m/s 760 mmHg 88%
03:00 +7°C° 0 mm 2 m/s 759 mmHg 90%
04:00 +8°C° 0 mm 3 m/s 760 mmHg 88%
05:00 +9°C° 0 mm 3 m/s 760 mmHg 86%
06:00 +10°C° 0 mm 3 m/s 760 mmHg 84%
07:00 +12°C° 0 mm 3 m/s 760 mmHg 78%
08:00 +13°C° 0 mm 3 m/s 760 mmHg 73%
09:00 +16°C° 0 mm 3 m/s 760 mmHg 67%
10:00 +17°C° 0 mm 3 m/s 760 mmHg 65%
11:00 +17°C° 0 mm 3 m/s 760 mmHg 63%
12:00 +18°C° 0 mm 3 m/s 760 mmHg 61%
13:00 +18°C° 0 mm 2 m/s 760 mmHg 61%
14:00 +18°C° 0 mm 2 m/s 760 mmHg 61%
15:00 +19°C° 0 mm 2 m/s 759 mmHg 62%
16:00 +19°C° 0 mm 2 m/s 759 mmHg 64%
17:00 +19°C° 0 mm 2 m/s 759 mmHg 66%
18:00 +19°C° 0 mm 2 m/s 759 mmHg 68%
19:00 +18°C° 0 mm 1 m/s 759 mmHg 72%
20:00 +16°C° 0 mm 1 m/s 759 mmHg 75%
21:00 +15°C° 0 mm 1 m/s 759 mmHg 79%
22:00 +14°C° 0 mm 1 m/s 759 mmHg 82%
23:00 +13°C° 0 mm 2 m/s 759 mmHg 85%
Voir plus